Overview Statistics Trail Chart Weather Telemetry Raw packets
 

This is the latest recevied weather packets stored in our database for station/object K3RUP-1. If no packets are shown the sender has not sent any weather packets the latest 10 day(s).

<< 81 82 83 84 85 86 87 >>
Time Temp. Humidity Pressure Rain* Wind** Luminosity Snow
1788101141 26.67° C 82% 1020.9 hPa 0 mm - 136 W/m² -
1788100836 26.67° C 82% 1021.1 hPa 0 mm - 185 W/m² -
1788100532 26.11° C 82% 1021 hPa 0 mm - 136 W/m² -
1788100230 26.11° C 83% 1021 hPa 0 mm - 95 W/m² -
1788099926 26.11° C 84% 1021 hPa 0 mm - 74 W/m² -
1788099620 25.56° C 84% 1020.9 hPa 0 mm - 108 W/m² -
1788099310 25.56° C 85% 1021 hPa 0 mm - 125 W/m² -
1788099010 25.56° C 85% 1020.9 hPa 0 mm - 96 W/m² -
1788098704 25.56° C 85% 1021.1 hPa 0 mm - 221 W/m² -
1788098404 25.56° C 85% 1021.1 hPa 0 mm - 83 W/m² -
1788098105 25.56° C 85% 1021 hPa 0 mm - 236 W/m² -
1788097789 25° C 87% 1020.9 hPa 0 mm - 368 W/m² -
1788097485 25° C 88% 1021.3 hPa 0 mm - 97 W/m² -
1788097180 25° C 89% 1021.3 hPa 0 mm - 77 W/m² -
1788096876 25° C 89% 1021.6 hPa 0 mm - 83 W/m² -
1788096571 24.44° C 91% 1021.6 hPa 0 mm - 157 W/m² -
1788096268 24.44° C 91% 1021.6 hPa 0 mm - 78 W/m² -
1788095966 23.89° C 92% 1022 hPa 0 mm - 97 W/m² -
1788095666 23.89° C 92% 1021.7 hPa 0 mm - 72 W/m² -
1788095361 23.89° C 93% 1021.9 hPa 0 mm - 68 W/m² -
1788095056 23.89° C 94% 1022.1 hPa 0 mm - 65 W/m² -
1788094755 23.33° C 95% 1022 hPa 0 mm - 67 W/m² -
1788094451 23.33° C 96% 1022 hPa 0 mm - 46 W/m² -
1788094148 23.33° C 97% 1022 hPa 0 mm - 48 W/m² -
1788093843 22.78° C 97% 1021.9 hPa 0 mm - 49 W/m² -

* Rain latest hour (hover to see other rain measurements)
** Current wind speed in m/s (hover to see current wind gust speed)